ISS - Orbit

View from above orbital plane
View from above orbital plane
View from above satellite
View from above satellite

Ground track
Ground track

The orbit data is extracted from the following two-line orbital elements,

1 25544U 98067A   13170.38211888  .00006333  00000-0  11522-3 0   317
2 25544 051.6479 097.4544 0010887 084.7757 014.3181 15.50864703835046
Epoch (UTC): 19 June 2013 09:10:15
Eccentricity: 0.0010887
inclination: 51.6479°
perigee height: 407 km
apogee height: 421 km
right ascension of ascending node: 97.4544°
argument of perigee: 84.7757°
revolutions per day: 15.50864703
mean anomaly at epoch: 14.3181°
orbit number at epoch: 83504

The dashed part of the orbit path shows where the satellite is in the earth's shadow,  

Developed and maintained by Chris Peat, Heavens-Above GmbH. Please read the updated FAQ before sending e-mail. Imprint. DLR